DECAYED
Showing default

SUCHAI-3, 52191 (Decayed)

Orbit data source: Space-Track

SUCHAI-3, 52191 was a payload satellite owned by SPEL/UCH (CL) in LEO that was launched on Fri, 01 Apr 2022 UTC via an FALCON 9 launch vehicle from the Air Force Eastern Test Range (AFETR). Payload-class satellites include a variety of spacecraft equipped with specific instruments for various scientific and technological missions. These include communications satellites like Starlink; space stations such as the ISS; scientific satellites like the Hubble; Earth observation satellites from companies like Planet Labs, Umbra, and HawkEye 360; GPS; miniature CubeSats for education and research; and military/defense satellites.

Not visible in the next 10 days
Identifier
52191, 2022-033AL
Orbit
Decayed
Country
Flag of UnknownUnknown / CHLE
Related business
Flag of CLSpace and Planetary Exploration Lab, University of Chile (CL)
Manufacturer
SPEL/UCH
Mission
Decayed Amateur Technology
Bus & Motor
CUBESAT 3U, Unknown motor
Mass
~4 kg wet, ~4 kg dry
Launch date (UTC)
2022-04-01 (3 years ago)
Launch vehicle
FALCON 9
Launch site
Air Force Eastern Test Range (AFETR)
Object type
Payload
Rocket body
Debris
Shape & HBR
Box, 0.1 m
Radar Cross Section
0.035 m², Small (<0.1 m²)

Expand to show TLE details & history
Last TLE update: 1 year ago

TLE from 1 year ago
0 SUCHAI-3
1 52191U 22033AL  24146.50949412  .15429445  25297-5  22962-3 0  9997
2 52191  97.2978 240.3180 0016695 271.5522  88.3869 16.47492065120493
Epoch: 2024-05-25T12:13Z
TLE epoch observation values (Epoch: 2024-05-25T12:13:40.291Z)
Latitude
-0.00008°
Longitude
173.32645°
Altitude
148.924 km
Speed
7.817 km/s
True Right ascension
16h 01m 16s
True Declination
0° 00' 00"
Sunlit
Object was in full shadow at epoch
Visualization orbit readout
Latitude
Unknown
Longitude
Unknown
Altitude
Unknown
Speed
Unknown
Apparent Right ascension
Unknown
Apparent Declination
Unknown
Sunlit
N/A
Visualization observer readout
Local Sidereal Time
07:56:08
Azimuth
Unknown
Elevation
Unknown
Doppler factor
Unknown
Orbital elements
Apogee altitude
153.628 km
Perigee altitude
131.855 km
Semi-major axis
6,520.878 km
Eccentricity
0.00167
Inclination
97.2978°
RAAN
240.318°
Arg. of periapsis
271.5522°
True anomaly
88.57815°
Mean anomaly
88.3869°
Eccentric anomaly
88.48252°
Mean motion
4.12177 °/min
Orbital period
87.34 mins
BSTAR
0.00022962
Loading maneuver chart data...
Computing Atmospheric mass density...

Documentation

Showing up to 5 results
|